EW3937 Weather Reports


Display with metric or nautical units.
time (UTC)temp
F
wind
direction
speed
MPH
gust
MPH
rain 1hr
in
rain 24hr
in
rain mn
in
humidity
%
barometer
mb
20260505124503 45 0 0.0 1.0 0.00 0.00 0.00 74 1011.6
20260505124003 47 0 0.0 2.0 0.00 0.00 0.00 73 1011.5
20260505123503 47 102 0.0 2.0 0.00 0.00 0.00 72 1011.5
20260505123003 48 101 1.0 2.0 0.00 0.00 0.00 71 1011.3
20260505122503 48 88 1.0 3.0 0.00 0.00 0.00 70 1011.3
20260505122003 49 86 0.0 3.0 0.00 0.00 0.00 69 1011.3
20260505121503 49 0 0.0 3.0 0.00 0.00 0.00 69 1011.2
20260505121003 48 0 0.0 2.0 0.00 0.00 0.00 71 1011.2
20260505120503 48 0 0.0 2.0 0.00 0.00 0.00 71 1011.1
20260505120004 48 0 0.0 3.0 0.00 0.00 0.00 73 1011.1
20260505115503 47 0 0.0 3.0 0.00 0.00 0.00 74 1011.1
20260505115003 46 0 0.0 2.0 0.00 0.00 0.00 75 1011.1
20260505114718 46 0 0.0 2.0 0.00 0.00 0.00 75 1011.2
20260505114003 46 0 0.0 2.0 0.00 0.00 0.00 76 1011.1
20260505113503 47 0 0.0 2.0 0.00 0.00 0.00 75 1011.0
20260505113003 47 0 0.0 2.0 0.00 0.00 0.00 74 1011.1
20260505112503 48 105 0.0 3.0 0.00 0.00 0.00 73 1011.1
20260505112003 48 107 1.0 3.0 0.00 0.00 0.00 72 1011.0
20260505111503 49 120 1.0 4.0 0.00 0.00 0.00 72 1011.0
20260505111003 48 113 0.0 4.0 0.00 0.00 0.00 72 1010.9
20260505110717 48 0 0.0 3.0 0.00 0.00 0.00 73 1010.9
20260505102003 45 0 0.0 3.0 0.00 0.00 0.00 80 1010.5
20260505101503 45 0 0.0 2.0 0.00 0.00 0.00 80 1010.5
20260505101003 46 0 0.0 1.0 0.00 0.00 0.00 78 1010.5
20260505100503 47 0 0.0 2.0 0.00 0.00 0.00 78 1010.5
20260505100003 47 0 0.0 2.0 0.00 0.00 0.00 79 1010.5
20260505095503 46 0 0.0 1.0 0.00 0.00 0.00 81 1010.5
20260505095003 45 0 0.0 0.0 0.00 0.00 0.00 80 1010.4
20260505094717 45 0 0.0 0.0 0.00 0.00 0.00 80 1010.4
20260505094003 46 0 0.0 0.0 0.00 0.00 0.00 79 1010.3
20260505093717 46 0 0.0 0.0 0.00 0.00 0.00 78 1010.3
20260505093003 47 0 0.0 1.0 0.00 0.00 0.00 77 1010.3
20260505092503 48 0 0.0 1.0 0.00 0.00 0.00 76 1010.3
20260505092003 48 0 0.0 1.0 0.00 0.00 0.00 76 1010.3
20260505091503 48 0 0.0 1.0 0.00 0.00 0.00 78 1010.3
20260505091003 47 0 0.0 1.0 0.00 0.00 0.00 79 1010.3
20260505090503 47 0 0.0 0.0 0.00 0.00 0.00 78 1010.3
20260505090003 47 0 0.0 0.0 0.00 0.00 0.00 78 1010.2
20260505085503 47 0 0.0 1.0 0.00 0.00 0.00 78 1010.3
20260505085003 47 0 0.0 1.0 0.00 0.00 0.00 78 1010.2
20260505084716 47 0 0.0 0.0 0.00 0.00 0.00 77 1010.2
20260505084003 48 0 0.0 0.0 0.00 0.00 0.00 76 1010.3
20260505083503 48 0 0.0 3.0 0.00 0.00 0.00 75 1010.1
20260505083003 49 0 0.0 3.0 0.00 0.00 0.00 74 1010.1
20260505082503 49 0 0.0 1.0 0.00 0.00 0.00 75 1010.1
20260505082003 49 0 0.0 0.0 0.00 0.00 0.00 75 1010.1
20260505081718 49 0 0.0 0.0 0.00 0.00 0.00 75 1010.1
20260505081003 49 0 0.0 1.0 0.00 0.00 0.00 74 1010.1
20260505080503 50 0 0.0 1.0 0.00 0.00 0.00 73 1010.1
20260505080003 50 0 0.0 2.0 0.00 0.00 0.00 71 1010.1
20260505075503 51 0 0.0 2.0 0.00 0.00 0.00 71 1010.0
20260505075003 50 0 0.0 1.0 0.00 0.00 0.00 73 1010.1
20260505074503 49 0 0.0 1.0 0.00 0.00 0.00 74 1010.0
20260505074003 49 0 0.0 1.0 0.00 0.00 0.00 74 1010.0
20260505073503 49 0 0.0 1.0 0.00 0.00 0.00 73 1009.9
20260505073003 50 0 0.0 1.0 0.00 0.00 0.00 72 1010.0
20260505072503 51 0 0.0 1.0 0.00 0.00 0.00 71 1009.9
20260505072003 51 0 0.0 1.0 0.00 0.00 0.00 70 1009.9
20260505071503 52 0 0.0 1.0 0.00 0.00 0.00 68 1009.9
20260505071217 52 0 0.0 1.0 0.00 0.00 0.00 68 1009.8
20260505070503 53 111 0.0 3.0 0.00 0.00 0.00 67 1009.8
20260505070009 53 110 0.0 3.0 0.00 0.00 0.00 66 1009.8
20260505065718 53 0 0.0 3.0 0.00 0.00 0.00 66 1009.7
20260505065003 53 0 0.0 1.0 0.00 0.00 0.00 66 1009.6
20260505064503 54 0 0.0 1.0 0.00 0.00 0.00 65 1009.6
20260505064003 54 0 0.0 2.0 0.00 0.00 0.00 63 1009.5
20260505063503 55 0 0.0 2.0 0.00 0.00 0.00 62 1009.6
20260505063217 55 0 0.0 3.0 0.00 0.00 0.00 62 1009.5
20260505062503 55 0 0.0 3.0 0.00 0.00 0.00 63 1009.5
20260505062003 54 0 0.0 2.0 0.00 0.00 0.00 65 1009.4
20260505061503 53 0 0.0 1.0 0.00 0.00 0.00 67 1009.4
20260505061003 52 0 0.0 1.0 0.00 0.00 0.00 68 1009.4
20260505060503 52 0 0.0 1.0 0.00 0.00 0.00 68 1009.4
20260505060216 52 0 0.0 1.0 0.00 0.00 0.00 67 1009.4
20260505055503 53 0 0.0 1.0 0.00 0.00 0.00 65 1009.4
20260505055003 54 0 0.0 1.0 0.00 0.00 0.00 64 1009.4
20260505054503 55 0 0.0 1.0 0.00 0.00 0.00 63 1009.3
20260505054003 55 0 0.0 3.0 0.00 0.00 0.00 62 1009.3
20260505053503 55 0 0.0 3.0 0.00 0.00 0.00 63 1009.3
20260505053003 53 0 0.0 2.0 0.00 0.00 0.00 67 1009.2
20260505052503 51 0 0.0 1.0 0.00 0.00 0.00 70 1009.2
20260505052003 50 0 0.0 1.0 0.00 0.00 0.00 72 1009.2
20260505051503 50 0 0.0 1.0 0.00 0.00 0.00 73 1009.2
20260505051218 50 0 0.0 2.0 0.00 0.00 0.00 73 1009.2
20260505050503 51 144 0.0 3.0 0.00 0.00 0.00 71 1009.1
20260505041503 54 0 0.0 4.0 0.00 0.00 0.00 66 1008.9
20260505041218 54 0 0.0 0.0 0.00 0.00 0.00 65 1008.7
20260505040503 55 0 0.0 2.0 0.00 0.00 0.00 64 1008.7
20260505040004 55 0 0.0 2.0 0.00 0.00 0.00 63 1008.6
20260505035503 56 0 0.0 0.0 0.00 0.00 0.00 61 1008.6
20260505035003 56 0 0.0 0.0 0.00 0.00 0.00 61 1008.5
20260505034503 57 0 0.0 1.0 0.00 0.00 0.00 59 1008.5
20260505034003 59 0 0.0 1.0 0.00 0.00 0.00 56 1008.4
20260505033503 60 0 0.0 1.0 0.00 0.00 0.00 53 1008.3
20260505033218 61 0 0.0 1.0 0.00 0.00 0.00 52 1008.3
20260505032503 63 0 0.0 1.0 0.00 0.00 0.00 49 1008.2
20260505032003 64 342 0.0 2.0 0.00 0.00 0.00 47 1008.2
20260505031503 64 342 0.0 2.0 0.00 0.00 0.00 47 1008.1
20260505031003 65 342 0.0 2.0 0.00 0.00 0.00 46 1008.1
20260505030503 65 344 0.0 3.0 0.00 0.00 0.00 46 1008.0
20260505030003 66 345 1.0 3.0 0.00 0.00 0.00 46 1008.0
20260505025503 66 338 1.0 3.0 0.00 0.00 0.00 45 1008.0
20260505025217 66 334 2.0 3.0 0.00 0.00 0.00 44 1007.9
20260505024503 67 339 2.0 4.0 0.00 0.00 0.00 42 1007.9
20260505024003 68 347 2.0 7.0 0.00 0.00 0.00 42 1007.8
20260505023503 69 346 3.0 7.0 0.00 0.00 0.00 39 1007.8
20260505023003 70 343 3.0 6.0 0.00 0.00 0.00 39 1007.8
20260505022503 70 344 2.0 7.0 0.00 0.00 0.00 39 1007.8
20260505022003 71 346 2.0 7.0 0.00 0.00 0.00 38 1007.7
20260505021503 72 348 2.0 5.0 0.00 0.00 0.00 37 1007.8
20260505021003 72 349 2.0 5.0 0.00 0.00 0.00 36 1007.8
20260505020503 73 348 2.0 7.0 0.00 0.00 0.00 35 1007.8
20260505020003 73 347 2.0 7.0 0.00 0.00 0.00 34 1007.7
20260505015503 73 347 2.0 6.0 0.00 0.00 0.00 34 1007.7
20260505015217 74 347 2.0 7.0 0.00 0.00 0.00 34 1007.6
20260505014718 74 341 2.0 9.0 0.00 0.00 0.00 33 1007.6
20260505014003 74 339 2.0 7.0 0.00 0.00 0.00 32 1007.5
20260505013503 74 344 2.0 7.0 0.00 0.00 0.00 32 1007.6
20260505013003 74 349 3.0 7.0 0.00 0.00 0.00 32 1007.7
20260505012503 74 348 3.0 7.0 0.00 0.00 0.00 31 1007.7
20260505012003 74 349 4.0 6.0 0.00 0.00 0.00 30 1007.7
20260505011503 74 348 4.0 9.0 0.00 0.00 0.00 31 1007.8
20260505011003 74 343 4.0 10.0 0.00 0.00 0.00 33 1007.8
20260505010503 75 347 3.0 10.0 0.00 0.00 0.00 32 1007.8
20260505010004 75 351 3.0 9.0 0.00 0.00 0.00 35 1007.9
20260505005503 75 346 3.0 8.0 0.00 0.00 0.00 34 1007.9
20260505005004 75 342 3.0 10.0 0.00 0.00 0.00 33 1007.9
20260505004503 75 343 3.0 10.0 0.00 0.00 0.00 34 1007.9
20260505004003 75 344 3.0 10.0 0.00 0.00 0.00 33 1007.9
20260505003503 75 346 3.0 10.0 0.00 0.00 0.00 35 1008.0
20260505003216 75 349 3.0 10.0 0.00 0.00 0.00 34 1008.0
20260505002503 75 347 4.0 9.0 0.00 0.00 0.00 36 1008.0
20260505002003 75 347 4.0 8.0 0.00 0.00 0.00 37 1008.0
20260505001717 75 346 3.0 8.0 0.00 0.00 0.00 34 1008.0
20260505001003 76 332 3.0 8.0 0.00 0.00 0.00 34 1008.1
20260505000503 76 326 3.0 8.0 0.00 0.00 0.00 37 1008.0
20260505000004 76 272 3.0 10.0 0.00 0.00 0.00 36 1008.1
20260504235503 76 236 3.0 12.0 0.00 0.00 0.00 37 1008.0
20260504235003 76 239 3.0 12.0 0.00 0.00 0.00 35 1008.1
20260504234504 76 236 3.0 11.0 0.00 0.00 0.00 37 1008.1
20260504234003 76 234 2.0 11.0 0.00 0.00 0.00 36 1008.1
20260504233503 76 247 2.0 8.0 0.00 0.00 0.00 37 1008.1
20260504233003 76 283 3.0 7.0 0.00 0.00 0.00 37 1008.1
20260504232503 76 264 4.0 8.0 0.00 0.00 0.00 38 1008.1
20260504232003 76 244 4.0 10.0 0.00 0.00 0.00 36 1008.1
20260504231503 76 232 4.0 11.0 0.00 0.00 0.00 37 1008.0
20260504231218 76 231 4.0 12.0 0.00 0.00 0.00 35 1008.1
20260504230503 76 239 3.0 12.0 0.00 0.00 0.00 37 1008.2
20260504230003 76 258 4.0 7.0 0.00 0.00 0.00 36 1008.2
20260504225503 76 241 4.0 10.0 0.00 0.00 0.00 37 1008.3
20260504225003 76 237 3.0 11.0 0.00 0.00 0.00 36 1008.2
20260504224503 76 240 3.0 11.0 0.00 0.00 0.00 38 1008.3
20260504224003 76 249 3.0 9.0 0.00 0.00 0.00 37 1008.4
20260504223503 76 246 3.0 13.0 0.00 0.00 0.00 40 1008.4
20260504223003 75 236 3.0 13.0 0.00 0.00 0.00 38 1008.5
20260504222503 75 245 4.0 12.0 0.00 0.00 0.00 37 1008.5
20260504222003 75 231 4.0 10.0 0.00 0.00 0.00 40 1008.5
20260504221503 75 226 3.0 10.0 0.00 0.00 0.00 38 1008.5
20260504221003 75 233 2.0 10.0 0.00 0.00 0.00 38 1008.6
20260504220503 75 269 3.0 12.0 0.00 0.00 0.00 39 1008.6
20260504220003 75 266 4.0 12.0 0.00 0.00 0.00 37 1008.7
20260504215503 75 237 4.0 12.0 0.00 0.00 0.00 38 1008.7
20260504215217 75 234 3.0 12.0 0.00 0.00 0.00 36 1008.6
20260504214504 76 282 3.0 8.0 0.00 0.00 0.00 39 1008.7
20260504214003 76 248 3.0 9.0 0.00 0.00 0.00 39 1008.8
20260504213503 76 237 3.0 10.0 0.00 0.00 0.00 37 1008.8
20260504213003 75 245 2.0 10.0 0.00 0.00 0.00 39 1008.8
20260504212503 76 246 2.0 6.0 0.00 0.00 0.00 38 1008.8
20260504212217 76 248 3.0 10.0 0.00 0.00 0.00 38 1008.8
20260504211503 75 251 3.0 10.0 0.00 0.00 0.00 43 1008.8
20260504211003 75 251 3.0 9.0 0.00 0.00 0.00 39 1008.9
20260504210503 75 248 3.0 13.0 0.00 0.00 0.00 41 1008.9
20260504210004 74 253 3.0 13.0 0.00 0.00 0.00 40 1009.0
20260504205503 74 259 3.0 8.0 0.00 0.00 0.00 41 1009.0
20260504205003 74 242 3.0 11.0 0.00 0.00 0.00 40 1009.1
20260504204503 74 241 2.0 13.0 0.00 0.00 0.00 39 1009.1
20260504204003 75 264 3.0 13.0 0.00 0.00 0.00 38 1009.1
20260504203503 74 251 3.0 9.0 0.00 0.00 0.00 37 1009.1
20260504203217 74 243 3.0 8.0 0.00 0.00 0.00 40 1009.1
20260504202503 74 235 4.0 8.0 0.00 0.00 0.00 39 1009.1
20260504202003 74 236 4.0 12.0 0.00 0.00 0.00 40 1009.1
20260504201503 73 239 3.0 12.0 0.00 0.00 0.00 40 1009.2
20260504201003 74 237 4.0 10.0 0.00 0.00 0.00 40 1009.2
20260504200503 74 232 4.0 10.0 0.00 0.00 0.00 38 1009.3
20260504200003 74 225 4.0 10.0 0.00 0.00 0.00 41 1009.2
20260504195718 74 227 4.0 10.0 0.00 0.00 0.00 39 1009.3
20260504195003 73 238 4.0 12.0 0.00 0.00 0.00 42 1009.3
20260504194503 73 236 4.0 12.0 0.00 0.00 0.00 41 1009.2
20260504194003 73 232 5.0 10.0 0.00 0.00 0.00 44 1009.3
20260504193503 72 227 6.0 13.0 0.00 0.00 0.00 41 1009.3
20260504193216 72 223 6.0 13.0 0.00 0.00 0.00 44 1009.3
20260504192717 72 228 5.0 12.0 0.00 0.00 0.00 42 1009.3
20260504192003 72 232 5.0 10.0 0.00 0.00 0.00 43 1009.3
20260504191503 72 235 5.0 12.0 0.00 0.00 0.00 42 1009.4
20260504191216 72 235 5.0 12.0 0.00 0.00 0.00 43 1009.4
20260504190504 72 238 5.0 10.0 0.00 0.00 0.00 45 1009.3
20260504190003 71 235 5.0 12.0 0.00 0.00 0.00 40 1009.4
20260504185503 71 229 5.0 12.0 0.00 0.00 0.00 42 1009.4
20260504185003 71 227 5.0 11.0 0.00 0.00 0.00 41 1009.4
20260504184503 71 226 5.0 10.0 0.00 0.00 0.00 42 1009.5
20260504184003 71 225 5.0 10.0 0.00 0.00 0.00 42 1009.5
20260504183503 71 225 4.0 13.0 0.00 0.00 0.00 42 1009.5
20260504183008 71 230 4.0 13.0 0.00 0.00 0.00 42 1009.5
20260504182503 71 238 5.0 8.0 0.00 0.00 0.00 42 1009.5
20260504182003 70 234 5.0 13.0 0.00 0.00 0.00 44 1009.5
20260504181717 70 235 5.0 13.0 0.00 0.00 0.00 42 1009.5
20260504181003 70 233 3.0 11.0 0.00 0.00 0.00 43 1009.5
20260504180717 71 231 3.0 8.0 0.00 0.00 0.00 44 1009.5
20260504180004 70 232 3.0 7.0 0.00 0.00 0.00 46 1009.4
20260504175503 70 237 3.0 9.0 0.00 0.00 0.00 46 1009.4
20260504175003 69 239 3.0 9.0 0.00 0.00 0.00 46 1009.4
20260504174717 70 232 3.0 9.0 0.00 0.00 0.00 45 1009.5
20260504174003 69 227 3.0 9.0 0.00 0.00 0.00 45 1009.5
20260504173503 70 234 3.0 9.0 0.00 0.00 0.00 46 1009.4
20260504173003 70 236 3.0 8.0 0.00 0.00 0.00 46 1009.5
20260504172503 69 234 3.0 7.0 0.00 0.00 0.00 45 1009.5
20260504172004 69 227 2.0 7.0 0.00 0.00 0.00 45 1009.5
20260504171504 69 226 2.0 7.0 0.00 0.00 0.00 44 1009.6
20260504171218 70 228 1.0 7.0 0.00 0.00 0.00 44 1009.5
20260504170717 70 238 1.0 7.0 0.00 0.00 0.00 46 1009.6
20260504151003 59 78 0.0 2.0 0.00 0.00 0.00 66 1009.7
20260504150503 59 81 0.0 2.0 0.00 0.00 0.00 67 1009.8
20260504141216 52 0 0.0 2.0 0.00 0.00 0.00 72 1009.6
20260504140503 52 123 0.0 2.0 0.00 0.00 0.00 75 1009.6
20260504130503 43 0 0.0 0.0 0.00 0.00 0.00 80 1009.3